Weather at Foula Airfield

Public forecast

Using degrees Celsius for public forecast. Weather courtesy of forecast.io.

Closest aviation weather report (METAR) to Foula Airfield

Closest report is Sumburgh Airport, 27.0 nm (50.0 km) ESE. Retrieved 2021/03/04 16:20 UTC (1 hour ago):

EGPB 041620Z 01008KT 9999 BKN030 03/M04 Q1032 NOSIG

Closest aviation forecast (TAF) to Foula Airfield

Forecast is more than 12 hours old.

Closest forecast is Scatsta Airport, 29.3 nm (54.2 km) NE. Retrieved 2013/04/29 03:39 UTC (8 years ago):

TAF TAF EGPM 290337Z 2903/2915 22005KT 9999 SCT030 PROB30 TEMPO 2903/2906 7000 SHRAGS BECMG 2906/2909 32015KT PROB40 TEMPO 2906/2915 6000 SHRA SHGS BKN012CB